Aérodrome :
LOGIN :

S'inscrire | Disclaimer

   EN    FR    IT 

 










Légende :    VFR   VFR Marginal   IFR   IFR Intensif   IFR Très Intensif
Visi : 
Plafond : 
>= 8 km
>= 3000ft
5 à 8 km
1000 à 3000 ft
1500m à 5 km
500 à 1000 ft
800 à 1500m
200 à 500 ft
< 800m
< 200 ft
Symboles :   Orages  Brouillard  Fortes neiges  Fortes précipitations  Vent > 20 kt
SIGMETs :   Divers  Orages  Givrage  Turbulence  Onde Orograph.  Cendres Volcan.







- Altitude de l'aérodrome : 26 ft
- Code IATA : BIA
- Voir les cartes d'approche


LFKB - Bastia

DERNIER METAR :
  • 221600Z 00000KT 9999 FEW033 SCT250 14/09 Q1019 NOSIG

METARs EXPIRÉS :
  • 221530Z 12002KT 9999 FEW033 SCT250 15/10 Q1019 NOSIG
  • 221500Z 12003KT 9999 FEW033 16/10 Q1019 NOSIG
  • 221430Z VRB03KT 9999 FEW033 16/11 Q1019 NOSIG
  • 221400Z VRB03KT 9999 FEW033 SCT250 17/10 Q1019 NOSIG
  • 221330Z 04003KT 350V110 9999 FEW033 SCT250 17/10 Q1019 NOSIG

TAF TAF LFKB
Valide du 22 à 15h jusqu'au 23 à 15h UTC


221400Z 2215/2315 04006KT 9999 FEW030
BECMG 2219/2221 24004KT
BECMG 2309/2311 14010KT TX17/2311Z TN08/2304Z
ATIS : +33 4 95 59 19 40
Pas de NOTAMs connus pour ce terrain.



MET'MAP, la Météo Aéronautique d'un coup d'oeil ! - Copyright ORBIFLY Décembre 2007 - Disclaimer

ORBIFLY MET'MAP TEAM :

Programmation & Développement : Alexandra Zaïnal
Conception & Développement : Baudouin d'Aumeries
Co-Programmation & Développement : Marc-Olivier Méhu
Soutien technique & logistique : Manuel Goepfert

Contact : metmap@orbifly.com




SOURCES & CREDITS :

   NOAA